User: anonymous   Login
Location: Unspecified
(0.0000°N, 0.0000°E)
Time: 10:53:32
(UTC+00:00)
Language:

MetOp-A - Orbit

View from above orbital plane
View from above orbital plane
View from above satellite
View from above satellite

Ground track
Ground track

The orbit data is extracted from the following two-line orbital elements,

1 29499U 06044A   17269.23143023  .00000012  00000-0  25397-4 0  9993
2 29499  98.6676 327.1044 0000520 158.5889 274.3467 14.21508977567497
Epoch (UTC): 26 September 2017 05:33:15
Eccentricity: 0.0000520
inclination: 98.6676°
perigee height: 820 km
apogee height: 820 km
right ascension of ascending node: 327.1044°
argument of perigee: 158.5889°
revolutions per day: 14.21508977
mean anomaly at epoch: 274.3467°
orbit number at epoch: 56749

The dashed part of the orbit path shows where the satellite is in the earth's shadow,  

DLR